Back to catalog

USA 143

AliveMilitaryUNKNOWN
NORAD 25724·PAYLOAD·🇺🇸 United States

Launched Apr 30, 1999 from Cape Canaveral Space Force Station

Loading…

Next Passes (next 24 hours)

TLE

FreshSource: Space-Track

Epoch: Sep 14, 2026, 01:11 UTC

1 25724U 99023A   26257.04982164  .00000088  00000-0  58610-3 0  9998
2 25724  28.2253 130.9177 2129806 205.3720 142.5072  9.37523773 80699

Track USA 143 in real time with AllMySat

Download on the App Store